Weather History for Burnet, TX

Change the Weather History Date:

Tuesday, October 2, 2012

  Actual Average Record
Temperature  
Mean Temperature 69 °F -  
Max Temperature 78 °F 80 °F 91 °F (2000)
Min Temperature 60 °F 60 °F 51 °F (2001)
Cooling Degree Days 4    
Growing Degree Days 19 (Base 50)    
Moisture  
Dew Point 52 °F    
Average Humidity 58    
Maximum Humidity 78    
Minimum Humidity 39    
Precipitation  
Precipitation 0.00 in - - ()
Sea Level Pressure  
Sea Level Pressure 29.96 in    
Wind  
Wind Speed 7 mph (NNW)    
Max Wind Speed 16 mph    
Max Gust Speed 22 mph    
Visibility 10 miles    
Events      
Averages and records for this station are not official NWS values.
T = Trace of Precipitation, MM = Missing Value Source: NWS Daily Summary

Daily Weather History Graph

Daily Weather History Graph

Search for Another Location

Airport:

Trip Planner

Search our weather history database for the weather conditions in past years. The results will help you decide how hot, cold, wet, or windy it might be!

Date:

Astronomy

Oct. 02, 2012 Rise Set
Actual Time 7:27 AM CDT 7:16 PM CDT
Civil Twilight 7:03 AM CDT 7:40 PM CDT
Nautical Twilight 6:35 AM CDT 8:08 PM CDT
Astronomical Twilight 6:07 AM CDT 8:36 PM CDT
Moon 8:44 PM CDT (10/2) 9:42 AM CDT (10/2)
Length of Visible Light 12h 36m
Length of Day
11h 48m
Waning Gibbous, 94% of the Moon is Illuminated
Oct 2
Waning Gibbous
Oct 8
Last Quarter
Oct 15
New
Oct 21
First Quarter
Oct 29
Full

Hourly Weather History & Observations

Time (CDT) Temp. Dew Point Humidity Pressure Visibility Wind Dir Wind Speed Gust Speed Precip Events Conditions
12:53 AM 66.0 °F 51.1 °F 59% 29.91 in 10.0 mi NW 6.9 mph - N/A   Clear
2:53 AM 64.0 °F 52.0 °F 65% 29.92 in 10.0 mi NNW 4.6 mph - N/A   Clear
3:53 AM 64.0 °F 52.0 °F 65% 29.93 in 10.0 mi NNW 8.1 mph - N/A   Overcast
4:53 AM 64.0 °F 52.0 °F 65% 29.94 in 10.0 mi NNW 9.2 mph - N/A   Scattered Clouds
5:53 AM 62.1 °F 52.0 °F 70% 29.95 in 10.0 mi NNW 6.9 mph - N/A   Clear
6:53 AM 61.0 °F 52.0 °F 72% 29.97 in 10.0 mi NW 4.6 mph - N/A   Clear
7:53 AM 60.1 °F 53.1 °F 78% 29.98 in 10.0 mi WNW 5.8 mph - N/A   Clear
8:53 AM 64.9 °F 52.0 °F 63% 30.00 in 10.0 mi NNW 12.7 mph - N/A   Clear
9:53 AM 66.9 °F 51.1 °F 57% 30.01 in 10.0 mi North 11.5 mph 20.7 mph N/A   Clear
10:53 AM 71.1 °F 50.0 °F 47% 30.00 in 10.0 mi NNW 16.1 mph 21.9 mph N/A   Clear
11:53 AM 73.0 °F 48.9 °F 42% 30.00 in 10.0 mi North 12.7 mph 21.9 mph N/A   Clear
12:53 PM 73.9 °F 52.0 °F 46% 29.99 in 10.0 mi North 9.2 mph - N/A   Partly Cloudy
1:53 PM 75.0 °F 51.1 °F 43% 29.96 in 10.0 mi Variable 6.9 mph - N/A   Partly Cloudy
2:53 PM 77.0 °F 51.1 °F 40% 29.94 in 10.0 mi North 8.1 mph - N/A   Partly Cloudy
3:53 PM 78.1 °F 51.1 °F 39% 29.93 in 10.0 mi North 4.6 mph - N/A   Clear
4:53 PM 75.0 °F 51.1 °F 43% 29.93 in 10.0 mi NNW 4.6 mph - N/A   Clear
5:53 PM 75.0 °F 50.0 °F 41% 29.93 in 10.0 mi North 4.6 mph - N/A   Partly Cloudy
7:53 PM 69.1 °F 54.0 °F 58% 29.94 in 10.0 mi Calm Calm - N/A   Clear
8:53 PM 66.0 °F 54.0 °F 65% 29.96 in 10.0 mi Calm Calm - N/A   Clear
9:53 PM 64.0 °F 54.0 °F 70% 29.97 in 10.0 mi Calm Calm - N/A   Clear
10:53 PM 61.0 °F 54.0 °F 78% 29.98 in 10.0 mi NNE 3.5 mph - N/A   Clear
11:53 PM 60.1 °F 53.1 °F 78% 29.98 in 10.0 mi Calm Calm - N/A   Clear